EZY87GA EGPH-LTBS

Flight info

Callsign EZY87GA
Flight time 4h 15m
Altitude 35000
Route TLA Y96 OTBUN DCT ERKIT N110 DOLAS DCT NAVPI DCT DOJOH DCT DODEN DCT NEGIX DCT DINKU DCT BESNI DCT LATLO DCT OBEDI DCT DIPSA DCT PODET DCT NOVLO DCT YULHU DCT VABEK UL603 OLOTA DCT RUGAS DCT PEREN DCT STINO DCT RIKSO UP14 ODNOD UT491 SONUP
Aircraft A320/M-SDE3FGHIRWY/LB1

Departure

Time 2026-04-25 11:53
Airport Edinburgh Airport (EGPH)

Arrival

Time 2026-04-25 16:08
Airport Dalaman International Airport (LTBS)
Time Latitude Longitude Altitude Speed Heading
2026-04-25 11:05 55.94894 -3.36002 114 ft 0 kts 254°
2026-04-25 11:39 55.94899 -3.35971 113 ft 4 kts 254°
2026-04-25 11:39 55.94906 -3.35925 114 ft 4 kts 255°
2026-04-25 11:39 55.94912 -3.35888 113 ft 4 kts 254°
2026-04-25 11:39 55.94918 -3.35842 114 ft 4 kts 266°
2026-04-25 11:40 55.94915 -3.35803 114 ft 1 kts 298°
2026-04-25 11:40 55.94915 -3.35802 113 ft 0 kts 298°
2026-04-25 11:42 55.94916 -3.35805 114 ft 1 kts 299°
2026-04-25 11:42 55.94932 -3.35839 114 ft 6 kts 317°
2026-04-25 11:43 55.94983 -3.35858 114 ft 9 kts 12°
2026-04-25 11:43 55.95045 -3.35817 112 ft 9 kts 27°
2026-04-25 11:43 55.95105 -3.35826 114 ft 9 kts 311°
2026-04-25 11:43 55.95140 -3.35914 115 ft 8 kts 318°
2026-04-25 11:44 55.95184 -3.35964 115 ft 7 kts 329°
2026-04-25 11:44 55.95213 -3.36018 114 ft 6 kts 280°
2026-04-25 11:44 55.95192 -3.36108 112 ft 10 kts 237°
2026-04-25 11:44 55.95147 -3.36244 113 ft 14 kts 239°
2026-04-25 11:45 55.95100 -3.36384 115 ft 13 kts 239°
2026-04-25 11:45 55.95057 -3.36510 115 ft 11 kts 239°
2026-04-25 11:45 55.95019 -3.36623 114 ft 10 kts 237°
2026-04-25 11:45 55.94981 -3.36733 115 ft 12 kts 239°
2026-04-25 11:46 55.94933 -3.36876 112 ft 14 kts 239°
2026-04-25 11:46 55.94886 -3.37014 114 ft 12 kts 238°
2026-04-25 11:46 55.94844 -3.37138 114 ft 11 kts 241°
2026-04-25 11:46 55.94808 -3.37245 114 ft 9 kts 238°
2026-04-25 11:47 55.94777 -3.37335 115 ft 8 kts 237°
2026-04-25 11:47 55.94752 -3.37408 114 ft 6 kts 239°
2026-04-25 11:47 55.94727 -3.37483 111 ft 11 kts 239°
2026-04-25 11:47 55.94675 -3.37644 115 ft 19 kts 241°
2026-04-25 11:48 55.94601 -3.37860 114 ft 20 kts 237°
2026-04-25 11:48 55.94532 -3.38060 113 ft 18 kts 239°
2026-04-25 11:48 55.94472 -3.38242 113 ft 16 kts 239°
2026-04-25 11:48 55.94418 -3.38405 113 ft 14 kts 240°
2026-04-25 11:49 55.94366 -3.38546 115 ft 13 kts 235°
2026-04-25 11:49 55.94322 -3.38671 115 ft 11 kts 239°
2026-04-25 11:49 55.94286 -3.38780 113 ft 9 kts 240°
2026-04-25 11:49 55.94282 -3.38851 114 ft 5 kts 295°
2026-04-25 11:50 55.94304 -3.38886 113 ft 4 kts 329°
2026-04-25 11:50 55.94316 -3.38899 116 ft 0 kts 329°
2026-04-25 11:51 55.94345 -3.38930 113 ft 6 kts 329°
2026-04-25 11:51 55.94382 -3.38970 114 ft 7 kts 329°
2026-04-25 11:52 55.94418 -3.38969 114 ft 5 kts 45°
2026-04-25 11:52 55.94421 -3.38960 113 ft 0 kts 58°
2026-04-25 11:52 55.94423 -3.38954 112 ft 7 kts 59°
2026-04-25 11:53 55.94580 -3.38490 113 ft 79 kts 59°
2026-04-25 11:53 55.94975 -3.37323 112 ft 136 kts 59°
2026-04-25 11:53 55.95516 -3.35733 425 ft 155 kts 58°
2026-04-25 11:53 55.96100 -3.34140 1172 ft 154 kts 48°
2026-04-25 11:54 55.96901 -3.32811 1690 ft 166 kts 45°
2026-04-25 11:54 55.97816 -3.31341 1994 ft 188 kts 45°
2026-04-25 11:54 56.00016 -3.27805 2595 ft 237 kts 44°
2026-04-25 11:55 56.01296 -3.25747 3046 ft 257 kts 43°
2026-04-25 11:55 56.02646 -3.23576 3820 ft 263 kts 41°
2026-04-25 11:55 56.04019 -3.21355 4628 ft 269 kts 42°
2026-04-25 11:55 56.05147 -3.18636 5391 ft 278 kts 63°
2026-04-25 11:56 56.05630 -3.15276 6185 ft 284 kts 88°
2026-04-25 11:56 56.05330 -3.11759 6935 ft 290 kts 110°
2026-04-25 11:56 56.04293 -3.08675 7639 ft 293 kts 135°
2026-04-25 11:56 56.02637 -3.06575 8383 ft 294 kts 157°
2026-04-25 11:57 56.00761 -3.05053 9148 ft 297 kts 158°
2026-04-25 11:57 55.98860 -3.03531 9904 ft 301 kts 158°
2026-04-25 11:57 55.96929 -3.01983 10475 ft 312 kts 157°
2026-04-25 11:57 55.94890 -3.00276 10660 ft 335 kts 156°
2026-04-25 11:58 55.92744 -2.98417 11094 ft 347 kts 155°
2026-04-25 11:58 55.90561 -2.96494 11756 ft 351 kts 155°
2026-04-25 11:58 55.88359 -2.94551 12429 ft 355 kts 155°
2026-04-25 11:58 55.86162 -2.92620 13113 ft 359 kts 155°
2026-04-25 11:59 55.83910 -2.90657 13797 ft 361 kts 155°
2026-04-25 11:59 55.81639 -2.88691 14413 ft 365 kts 155°
2026-04-25 11:59 55.79347 -2.86714 14975 ft 368 kts 155°
2026-04-25 12:00 55.74709 -2.82723 16186 ft 372 kts 155°
2026-04-25 12:00 55.72375 -2.80717 16852 ft 373 kts 155°
2026-04-25 12:00 55.67636 -2.76661 17997 ft 379 kts 156°
2026-04-25 12:01 55.65254 -2.74626 18562 ft 382 kts 155°
2026-04-25 12:01 55.62853 -2.72574 19061 ft 384 kts 156°
2026-04-25 12:01 55.60435 -2.70511 19525 ft 387 kts 156°
2026-04-25 12:01 55.57998 -2.68438 19987 ft 390 kts 155°
2026-04-25 12:02 55.53079 -2.64271 20954 ft 395 kts 155°
2026-04-25 12:02 55.50588 -2.62159 21400 ft 398 kts 155°
2026-04-25 12:02 55.48115 -2.60062 21828 ft 401 kts 155°
2026-04-25 12:03 55.45559 -2.57896 22311 ft 403 kts 155°
2026-04-25 12:03 55.43052 -2.55780 22744 ft 406 kts 155°
2026-04-25 12:03 55.40501 -2.53632 23220 ft 407 kts 155°
2026-04-25 12:03 55.37941 -2.51487 23689 ft 409 kts 155°
2026-04-25 12:04 55.35358 -2.49343 24069 ft 411 kts 155°
2026-04-25 12:04 55.32755 -2.47195 24403 ft 414 kts 155°
2026-04-25 12:04 55.30139 -2.45043 24759 ft 415 kts 155°
2026-04-25 12:04 55.27599 -2.42634 25136 ft 417 kts 147°
2026-04-25 12:05 55.25257 -2.39615 25480 ft 418 kts 143°
2026-04-25 12:05 55.22936 -2.36516 25831 ft 420 kts 143°
2026-04-25 12:05 55.20610 -2.33425 26231 ft 420 kts 143°
2026-04-25 12:05 55.18281 -2.30338 26585 ft 421 kts 143°
2026-04-25 12:06 55.15935 -2.27234 26911 ft 423 kts 143°
2026-04-25 12:06 55.13580 -2.24126 27235 ft 425 kts 144°
2026-04-25 12:06 55.11245 -2.21046 27549 ft 427 kts 144°
2026-04-25 12:06 55.08865 -2.17910 27861 ft 430 kts 144°
2026-04-25 12:07 55.06466 -2.14749 28038 ft 435 kts 144°
2026-04-25 12:07 55.04040 -2.11555 28248 ft 440 kts 144°
2026-04-25 12:07 55.01589 -2.08332 28523 ft 442 kts 144°
2026-04-25 12:07 54.99117 -2.05086 28844 ft 444 kts 144°
2026-04-25 12:08 54.96653 -2.01855 29243 ft 443 kts 144°
2026-04-25 12:08 54.94189 -1.98631 29580 ft 444 kts 144°
2026-04-25 12:08 54.91708 -1.95393 29872 ft 446 kts 144°
2026-04-25 12:08 54.89220 -1.92159 30179 ft 447 kts 144°
2026-04-25 12:09 54.86722 -1.88926 30440 ft 449 kts 144°
2026-04-25 12:09 54.84216 -1.85683 30667 ft 450 kts 144°
2026-04-25 12:09 54.81702 -1.82432 30912 ft 451 kts 144°
2026-04-25 12:09 54.79188 -1.79179 31205 ft 451 kts 144°
2026-04-25 12:10 54.76681 -1.75942 31527 ft 449 kts 144°
2026-04-25 12:10 54.74175 -1.72709 31855 ft 448 kts 144°
2026-04-25 12:10 54.71677 -1.69491 32206 ft 446 kts 144°
2026-04-25 12:10 54.69187 -1.66290 32556 ft 445 kts 145°
2026-04-25 12:11 54.66702 -1.63101 32862 ft 445 kts 145°
2026-04-25 12:11 54.64216 -1.59919 33123 ft 445 kts 145°
2026-04-25 12:11 54.61722 -1.56728 33301 ft 447 kts 145°
2026-04-25 12:11 54.59218 -1.53530 33541 ft 448 kts 145°
2026-04-25 12:12 54.56710 -1.50331 33831 ft 448 kts 145°
2026-04-25 12:12 54.55051 -1.48217 34028 ft 448 kts 145°
2026-04-25 12:12 54.51706 -1.43961 34388 ft 447 kts 145°
2026-04-25 12:12 54.49202 -1.40777 34635 ft 447 kts 145°
2026-04-25 12:13 54.46705 -1.37605 34906 ft 445 kts 145°
2026-04-25 12:13 54.44253 -1.34498 35161 ft 444 kts 145°
2026-04-25 12:13 54.39279 -1.28220 35245 ft 442 kts 145°
2026-04-25 12:14 54.34336 -1.22004 35243 ft 440 kts 145°
2026-04-25 12:14 54.29390 -1.15802 35242 ft 440 kts 145°
2026-04-25 12:15 54.24439 -1.09610 35240 ft 440 kts 145°
2026-04-25 12:15 54.19497 -1.03439 35231 ft 440 kts 145°
2026-04-25 12:16 54.14542 -0.97275 35224 ft 441 kts 145°
2026-04-25 12:16 54.09578 -0.91107 35206 ft 441 kts 146°
2026-04-25 12:17 54.04615 -0.84977 35206 ft 441 kts 146°
2026-04-25 12:17 53.99627 -0.78913 35205 ft 441 kts 147°
2026-04-25 12:18 53.95428 -0.74006 35204 ft 440 kts 147°
2026-04-25 12:18 53.90364 -0.68165 35204 ft 440 kts 147°
2026-04-25 12:19 53.82781 -0.59364 35213 ft 440 kts 147°
2026-04-25 12:20 53.77740 -0.53488 35222 ft 440 kts 147°
2026-04-25 12:20 53.72688 -0.47624 35224 ft 440 kts 147°
2026-04-25 12:21 53.67636 -0.41783 35236 ft 440 kts 147°
2026-04-25 12:21 53.62583 -0.35951 35240 ft 440 kts 148°
2026-04-25 12:22 53.57701 -0.29751 35240 ft 442 kts 137°
2026-04-25 12:22 53.53851 -0.21760 35237 ft 444 kts 128°
2026-04-25 12:23 53.50137 -0.13473 35229 ft 444 kts 129°
2026-04-25 12:23 53.46409 -0.05208 35224 ft 444 kts 129°
2026-04-25 12:24 53.42663 0.03062 35209 ft 445 kts 129°
2026-04-25 12:24 53.38914 0.11315 35212 ft 445 kts 129°
2026-04-25 12:25 53.35156 0.19573 35212 ft 445 kts 129°
2026-04-25 12:25 53.31390 0.27809 35212 ft 445 kts 129°
2026-04-25 12:26 53.27628 0.36024 35214 ft 445 kts 129°
2026-04-25 12:26 53.23858 0.44232 35213 ft 445 kts 129°
2026-04-25 12:27 53.20112 0.52372 35218 ft 445 kts 129°
2026-04-25 12:27 53.16325 0.60554 35212 ft 446 kts 129°
2026-04-25 12:28 53.12536 0.68726 35210 ft 446 kts 129°
2026-04-25 12:28 53.08737 0.76889 35213 ft 446 kts 129°
2026-04-25 12:29 53.04923 0.85044 35214 ft 447 kts 129°
2026-04-25 12:29 53.01094 0.93187 35217 ft 447 kts 129°
2026-04-25 12:30 52.97602 1.01717 35212 ft 449 kts 117°
2026-04-25 12:30 52.95326 1.11370 35207 ft 450 kts 111°
2026-04-25 12:31 52.93132 1.21109 35204 ft 451 kts 111°
2026-04-25 12:31 52.90916 1.30834 35211 ft 451 kts 112°
2026-04-25 12:32 52.88700 1.40496 35208 ft 451 kts 112°
2026-04-25 12:32 52.86464 1.50204 35211 ft 451 kts 112°
2026-04-25 12:33 52.84227 1.59920 35202 ft 453 kts 111°
2026-04-25 12:33 52.81976 1.69680 35206 ft 454 kts 111°
2026-04-25 12:34 52.79711 1.79409 35202 ft 454 kts 112°
2026-04-25 12:34 52.77434 1.89140 35210 ft 454 kts 112°
2026-04-25 12:35 52.75156 1.98879 35215 ft 454 kts 112°
2026-04-25 12:35 52.72862 2.08596 35206 ft 455 kts 112°
2026-04-25 12:36 52.70553 2.18340 35207 ft 456 kts 112°
2026-04-25 12:36 52.68239 2.28071 35212 ft 456 kts 112°
2026-04-25 12:37 52.65909 2.37809 35216 ft 457 kts 112°
2026-04-25 12:37 52.63575 2.47526 35217 ft 457 kts 112°
2026-04-25 12:38 52.61229 2.57256 35217 ft 458 kts 112°
2026-04-25 12:38 52.58871 2.66994 35212 ft 458 kts 112°
2026-04-25 12:39 52.56491 2.76736 35217 ft 459 kts 112°
2026-04-25 12:39 52.53981 2.86371 35218 ft 458 kts 118°
2026-04-25 12:40 52.51067 2.95608 35227 ft 459 kts 118°
2026-04-25 12:40 52.48100 3.04904 35206 ft 459 kts 118°
2026-04-25 12:41 52.45132 3.14200 35210 ft 460 kts 118°
2026-04-25 12:41 52.42167 3.23483 35215 ft 460 kts 118°
2026-04-25 12:42 52.39186 3.32782 35219 ft 461 kts 118°
2026-04-25 12:42 52.36194 3.42063 35218 ft 461 kts 118°
2026-04-25 12:43 52.33188 3.51321 35223 ft 461 kts 118°
2026-04-25 12:43 52.28674 3.65214 35219 ft 462 kts 118°
2026-04-25 12:44 52.25646 3.74476 35218 ft 462 kts 118°
2026-04-25 12:45 52.21098 3.88359 35213 ft 462 kts 118°
2026-04-25 12:45 52.16522 4.02205 35213 ft 463 kts 118°
2026-04-25 12:46 52.13467 4.11436 35209 ft 463 kts 118°
2026-04-25 12:46 52.10428 4.20591 35204 ft 463 kts 118°
2026-04-25 12:47 52.07400 4.29623 35207 ft 463 kts 119°
2026-04-25 12:47 52.04312 4.38809 35201 ft 463 kts 119°
2026-04-25 12:48 52.01219 4.48003 35211 ft 463 kts 119°
2026-04-25 12:48 51.98122 4.57172 35213 ft 463 kts 119°
2026-04-25 12:49 51.95022 4.66319 35201 ft 463 kts 119°
2026-04-25 12:49 51.91911 4.75460 35192 ft 463 kts 119°
2026-04-25 12:50 51.88805 4.84575 35194 ft 462 kts 119°
2026-04-25 12:50 51.85686 4.93680 35197 ft 462 kts 119°
2026-04-25 12:51 51.82555 5.02773 35195 ft 463 kts 119°
2026-04-25 12:51 51.79420 5.11876 35195 ft 463 kts 119°
2026-04-25 12:52 51.76267 5.20953 35195 ft 463 kts 120°
2026-04-25 12:52 51.73123 5.29969 35195 ft 464 kts 120°
2026-04-25 12:53 51.69959 5.39035 35194 ft 464 kts 119°
2026-04-25 12:53 51.66767 5.48178 35176 ft 465 kts 119°
2026-04-25 12:54 51.63609 5.57177 35181 ft 465 kts 120°
2026-04-25 12:54 51.60421 5.66212 35179 ft 464 kts 120°
2026-04-25 12:55 51.58281 5.72253 35182 ft 464 kts 120°
2026-04-25 12:55 51.54019 5.84252 35187 ft 464 kts 120°
2026-04-25 12:56 51.50811 5.93259 35183 ft 465 kts 120°
2026-04-25 12:56 51.47589 6.02255 35182 ft 465 kts 120°
2026-04-25 12:57 51.44144 6.11029 35180 ft 465 kts 124°
2026-04-25 12:57 51.40466 6.19538 35165 ft 465 kts 125°
2026-04-25 12:58 51.36798 6.27992 35183 ft 464 kts 124°
2026-04-25 12:58 51.33178 6.36555 35182 ft 465 kts 124°
2026-04-25 12:59 51.29576 6.45132 35178 ft 465 kts 124°
2026-04-25 12:59 51.25931 6.53742 35179 ft 465 kts 124°
2026-04-25 13:00 51.23524 6.59396 35178 ft 465 kts 124°
2026-04-25 13:00 51.18675 6.70751 35185 ft 466 kts 124°
2026-04-25 13:01 51.15011 6.79273 35181 ft 466 kts 124°
2026-04-25 13:01 51.11348 6.87791 35170 ft 466 kts 124°
2026-04-25 13:02 51.08298 6.94863 35182 ft 466 kts 124°
2026-04-25 13:02 51.04629 7.03341 35186 ft 465 kts 124°
2026-04-25 13:03 51.00957 7.11800 35202 ft 465 kts 124°
2026-04-25 13:03 50.97275 7.20252 35191 ft 466 kts 124°
2026-04-25 13:04 50.93582 7.28690 35188 ft 466 kts 124°
2026-04-25 13:04 50.89878 7.37132 35181 ft 466 kts 125°
2026-04-25 13:05 50.86170 7.45559 35181 ft 466 kts 125°
2026-04-25 13:05 50.82458 7.53981 35169 ft 466 kts 125°
2026-04-25 13:06 50.78733 7.62380 35153 ft 467 kts 125°
2026-04-25 13:06 50.75005 7.70775 35139 ft 467 kts 125°
2026-04-25 13:07 50.71274 7.79170 35134 ft 467 kts 125°
2026-04-25 13:07 50.67550 7.87512 35133 ft 467 kts 125°
2026-04-25 13:08 50.63797 7.95881 35147 ft 468 kts 125°
2026-04-25 13:08 50.60037 8.04244 35136 ft 468 kts 125°
2026-04-25 13:09 50.56281 8.12593 35139 ft 467 kts 125°
2026-04-25 13:09 50.52528 8.20918 35127 ft 467 kts 125°
2026-04-25 13:10 50.48762 8.29224 35134 ft 467 kts 125°
2026-04-25 13:10 50.44991 8.37509 35136 ft 466 kts 125°
2026-04-25 13:11 50.41214 8.45789 35129 ft 467 kts 125°
2026-04-25 13:11 50.37363 8.53935 35118 ft 466 kts 131°
2026-04-25 13:12 50.33000 8.61288 35109 ft 466 kts 133°
2026-04-25 13:12 50.29316 8.67449 35099 ft 466 kts 133°
2026-04-25 13:13 50.24166 8.76022 35112 ft 465 kts 133°
2026-04-25 13:13 50.19741 8.83394 35111 ft 465 kts 133°
2026-04-25 13:14 50.15306 8.90740 35101 ft 465 kts 133°
2026-04-25 13:14 50.10872 8.98077 35101 ft 465 kts 133°
2026-04-25 13:15 50.06437 9.05407 35096 ft 465 kts 133°
2026-04-25 13:15 50.02002 9.12710 35109 ft 464 kts 133°
2026-04-25 13:16 49.97562 9.19994 35119 ft 464 kts 133°
2026-04-25 13:16 49.93113 9.27283 35114 ft 464 kts 133°
2026-04-25 13:17 49.88661 9.34531 35114 ft 464 kts 134°
2026-04-25 13:17 49.84197 9.41770 35113 ft 464 kts 133°
2026-04-25 13:18 49.79741 9.48999 35093 ft 464 kts 134°
2026-04-25 13:18 49.75287 9.56211 35120 ft 463 kts 134°
2026-04-25 13:19 49.70833 9.63388 35114 ft 463 kts 134°
2026-04-25 13:19 49.67126 9.69350 35113 ft 463 kts 134°
2026-04-25 13:20 49.61906 9.77722 35108 ft 463 kts 134°
2026-04-25 13:20 49.57440 9.84858 35109 ft 463 kts 134°
2026-04-25 13:21 49.52973 9.91990 35104 ft 462 kts 134°
2026-04-25 13:21 49.48501 9.99102 35108 ft 462 kts 134°
2026-04-25 13:22 49.44027 10.06192 35107 ft 462 kts 134°
2026-04-25 13:23 49.37302 10.16798 35107 ft 462 kts 134°
2026-04-25 13:23 49.32815 10.23854 35110 ft 462 kts 134°
2026-04-25 13:24 49.28332 10.30895 35106 ft 462 kts 135°
2026-04-25 13:24 49.23845 10.37934 35109 ft 461 kts 135°
2026-04-25 13:25 49.19335 10.44819 35124 ft 461 kts 136°
2026-04-25 13:25 49.14718 10.51620 35134 ft 461 kts 137°
2026-04-25 13:26 49.10095 10.58393 35135 ft 461 kts 137°
2026-04-25 13:26 49.05451 10.65230 35136 ft 461 kts 137°
2026-04-25 13:27 49.00878 10.71984 35130 ft 460 kts 137°
2026-04-25 13:27 48.96247 10.78798 35123 ft 459 kts 137°
2026-04-25 13:28 48.91674 10.85503 35118 ft 459 kts 137°
2026-04-25 13:28 48.87066 10.92244 35098 ft 459 kts 137°
2026-04-25 13:29 48.82468 10.98951 35095 ft 458 kts 138°
2026-04-25 13:29 48.77868 11.05637 35090 ft 458 kts 138°
2026-04-25 13:30 48.70984 11.15622 35093 ft 456 kts 138°
2026-04-25 13:31 48.64111 11.25540 35092 ft 454 kts 137°
2026-04-25 13:31 48.59750 11.32468 35088 ft 455 kts 133°
2026-04-25 13:32 48.55573 11.39664 35089 ft 455 kts 134°
2026-04-25 13:32 48.51369 11.46820 35083 ft 455 kts 135°
2026-04-25 13:33 48.47106 11.53870 35087 ft 455 kts 136°
2026-04-25 13:33 48.42823 11.60882 35096 ft 454 kts 136°
2026-04-25 13:34 48.38561 11.67892 35096 ft 454 kts 135°
2026-04-25 13:34 48.34297 11.74893 35085 ft 454 kts 136°
2026-04-25 13:35 48.30046 11.81837 35079 ft 455 kts 136°
2026-04-25 13:35 48.25733 11.88874 35081 ft 455 kts 136°
2026-04-25 13:36 48.21474 11.95807 35083 ft 455 kts 136°
2026-04-25 13:36 48.17176 12.02784 35083 ft 455 kts 136°
2026-04-25 13:37 48.12872 12.09755 35073 ft 455 kts 137°
2026-04-25 13:37 48.08558 12.16708 35070 ft 456 kts 137°
2026-04-25 13:38 48.04231 12.23657 35065 ft 457 kts 137°
2026-04-25 13:38 47.99897 12.30613 35066 ft 457 kts 137°
2026-04-25 13:39 47.95563 12.37553 35058 ft 457 kts 137°
2026-04-25 13:39 47.91227 12.44490 35078 ft 457 kts 137°
2026-04-25 13:40 47.86896 12.51410 35081 ft 457 kts 137°
2026-04-25 13:40 47.82547 12.58318 35082 ft 457 kts 137°
2026-04-25 13:41 47.78198 12.65200 35075 ft 456 kts 137°
2026-04-25 13:41 47.73843 12.72078 35072 ft 456 kts 137°
2026-04-25 13:42 47.69519 12.78898 35048 ft 457 kts 138°
2026-04-25 13:42 47.65085 12.85730 35051 ft 456 kts 139°
2026-04-25 13:43 47.60600 12.92302 35059 ft 456 kts 140°
2026-04-25 13:43 47.56067 12.98888 35058 ft 456 kts 140°
2026-04-25 13:44 47.51560 13.05501 35060 ft 456 kts 139°
2026-04-25 13:44 47.47794 13.11053 35062 ft 457 kts 139°
2026-04-25 13:45 47.43295 13.17669 35052 ft 456 kts 139°
2026-04-25 13:45 47.38812 13.24214 35068 ft 456 kts 140°
2026-04-25 13:46 47.34298 13.30785 35066 ft 456 kts 139°
2026-04-25 13:46 47.30449 13.38292 35062 ft 462 kts 126°
2026-04-25 13:47 47.26967 13.46245 35062 ft 462 kts 126°
2026-04-25 13:47 47.23464 13.54189 35056 ft 463 kts 126°
2026-04-25 13:48 47.19948 13.62137 35051 ft 464 kts 126°
2026-04-25 13:48 47.16431 13.70073 35045 ft 463 kts 126°
2026-04-25 13:49 47.12907 13.77992 35051 ft 463 kts 126°
2026-04-25 13:49 47.09375 13.85913 35048 ft 463 kts 126°
2026-04-25 13:50 47.05850 13.93805 35042 ft 462 kts 126°
2026-04-25 13:50 47.02323 14.01672 35028 ft 461 kts 127°
2026-04-25 13:51 46.98784 14.09525 35022 ft 462 kts 127°
2026-04-25 13:51 46.95263 14.17311 35011 ft 462 kts 127°
2026-04-25 13:52 46.91719 14.25159 34999 ft 462 kts 127°
2026-04-25 13:52 46.88148 14.33046 34985 ft 462 kts 127°
2026-04-25 13:53 46.84599 14.40854 34997 ft 461 kts 127°
2026-04-25 13:53 46.81041 14.48650 34991 ft 461 kts 127°
2026-04-25 13:54 46.77499 14.56379 34991 ft 461 kts 127°
2026-04-25 13:54 46.73922 14.64151 34989 ft 462 kts 127°
2026-04-25 13:55 46.70347 14.71925 34986 ft 461 kts 127°
2026-04-25 13:55 46.66772 14.79689 34984 ft 462 kts 127°
2026-04-25 13:56 46.63181 14.87444 34980 ft 462 kts 127°
2026-04-25 13:56 46.59341 14.94881 34973 ft 458 kts 135°
2026-04-25 13:57 46.55091 15.01777 34974 ft 458 kts 135°
2026-04-25 13:57 46.50843 15.08655 34977 ft 458 kts 135°
2026-04-25 13:58 46.46594 15.15539 34972 ft 458 kts 135°
2026-04-25 13:58 46.42325 15.22402 34987 ft 458 kts 135°
2026-04-25 13:59 46.38058 15.29250 34978 ft 458 kts 135°
2026-04-25 13:59 46.33790 15.36103 34964 ft 458 kts 135°
2026-04-25 14:00 46.30250 15.41782 34979 ft 457 kts 135°
2026-04-25 14:00 46.25281 15.49706 34981 ft 457 kts 135°
2026-04-25 14:01 46.21006 15.56516 34983 ft 457 kts 135°
2026-04-25 14:01 46.16730 15.63314 34991 ft 457 kts 136°
2026-04-25 14:02 46.12296 15.69880 34991 ft 456 kts 139°
2026-04-25 14:02 46.07759 15.76261 34987 ft 456 kts 139°
2026-04-25 14:03 46.03222 15.82656 35002 ft 455 kts 139°
2026-04-25 14:03 45.98728 15.89073 35005 ft 455 kts 138°
2026-04-25 14:04 45.94242 15.95504 35003 ft 455 kts 138°
2026-04-25 14:04 45.89757 16.01909 35002 ft 455 kts 138°
2026-04-25 14:05 45.85268 16.08308 34987 ft 455 kts 138°
2026-04-25 14:05 45.80789 16.14652 34989 ft 455 kts 138°
2026-04-25 14:06 45.76286 16.21004 34998 ft 454 kts 138°
2026-04-25 14:06 45.71784 16.27346 34998 ft 454 kts 138°
2026-04-25 14:07 45.67289 16.33681 35002 ft 454 kts 138°
2026-04-25 14:07 45.62778 16.40014 35003 ft 454 kts 138°
2026-04-25 14:08 45.58263 16.46323 35004 ft 454 kts 138°
2026-04-25 14:08 45.53777 16.52588 35006 ft 454 kts 138°
2026-04-25 14:09 45.49261 16.58902 35012 ft 454 kts 138°
2026-04-25 14:09 45.44736 16.65198 35007 ft 455 kts 139°
2026-04-25 14:10 45.40202 16.71480 35005 ft 455 kts 139°
2026-04-25 14:10 45.35660 16.77757 35004 ft 455 kts 139°
2026-04-25 14:11 45.31124 16.84030 34991 ft 455 kts 138°
2026-04-25 14:11 45.26580 16.90295 35001 ft 455 kts 138°
2026-04-25 14:12 45.22142 16.96685 35003 ft 456 kts 131°
2026-04-25 14:12 45.18161 17.03702 35005 ft 457 kts 131°
2026-04-25 14:13 45.14171 17.10714 35009 ft 457 kts 131°
2026-04-25 14:13 45.10179 17.17714 35011 ft 457 kts 130°
2026-04-25 14:14 45.06172 17.24718 35008 ft 458 kts 131°
2026-04-25 14:14 45.02162 17.31714 35002 ft 457 kts 130°
2026-04-25 14:15 44.98151 17.38677 35003 ft 457 kts 131°
2026-04-25 14:15 44.94137 17.45636 35015 ft 457 kts 130°
2026-04-25 14:16 44.90131 17.52585 35011 ft 457 kts 130°
2026-04-25 14:16 44.86112 17.59522 35013 ft 457 kts 131°
2026-04-25 14:17 44.82091 17.66443 35020 ft 457 kts 131°
2026-04-25 14:17 44.78055 17.73354 35028 ft 457 kts 131°
2026-04-25 14:18 44.74023 17.80257 35027 ft 456 kts 130°
2026-04-25 14:18 44.69998 17.87146 35033 ft 456 kts 130°
2026-04-25 14:19 44.65967 17.94013 35028 ft 455 kts 130°
2026-04-25 14:19 44.61940 18.00869 35029 ft 455 kts 130°
2026-04-25 14:20 44.57902 18.07712 35028 ft 455 kts 130°
2026-04-25 14:20 44.53867 18.14539 35020 ft 455 kts 130°
2026-04-25 14:21 44.49824 18.21378 35009 ft 455 kts 130°
2026-04-25 14:21 44.45800 18.28154 35020 ft 455 kts 130°
2026-04-25 14:22 44.41757 18.34956 35032 ft 454 kts 130°
2026-04-25 14:22 44.37712 18.41738 35033 ft 454 kts 130°
2026-04-25 14:23 44.33662 18.48514 35027 ft 454 kts 130°
2026-04-25 14:23 44.29610 18.55268 35029 ft 454 kts 130°
2026-04-25 14:24 44.25542 18.62010 35024 ft 454 kts 130°
2026-04-25 14:24 44.21471 18.68740 35025 ft 454 kts 130°
2026-04-25 14:25 44.17391 18.75452 35028 ft 453 kts 130°
2026-04-25 14:25 44.13323 18.82160 35031 ft 453 kts 130°
2026-04-25 14:26 44.09933 18.87723 35037 ft 453 kts 130°
2026-04-25 14:26 44.05852 18.94400 35036 ft 453 kts 130°
2026-04-25 14:27 44.01764 19.01074 35038 ft 453 kts 130°
2026-04-25 14:27 43.97680 19.07738 35035 ft 453 kts 130°
2026-04-25 14:28 43.93592 19.14395 35036 ft 453 kts 130°
2026-04-25 14:28 43.89497 19.21033 35038 ft 452 kts 130°
2026-04-25 14:29 43.85404 19.27654 35039 ft 452 kts 130°
2026-04-25 14:29 43.81315 19.34265 35041 ft 452 kts 130°
2026-04-25 14:30 43.77220 19.40862 35044 ft 452 kts 130°
2026-04-25 14:30 43.71069 19.50744 35041 ft 452 kts 130°
2026-04-25 14:31 43.66969 19.57321 35036 ft 451 kts 130°
2026-04-25 14:31 43.62864 19.63885 35048 ft 451 kts 130°
2026-04-25 14:32 43.58790 19.70383 35052 ft 450 kts 130°
2026-04-25 14:32 43.54682 19.76916 35047 ft 450 kts 130°
2026-04-25 14:33 43.50581 19.83432 35049 ft 450 kts 130°
2026-04-25 14:33 43.46480 19.89943 35046 ft 450 kts 130°
2026-04-25 14:34 43.42363 19.96444 35045 ft 450 kts 130°
2026-04-25 14:34 43.38250 20.02924 35042 ft 450 kts 130°
2026-04-25 14:35 43.34138 20.09391 35042 ft 449 kts 130°
2026-04-25 14:35 43.30022 20.15852 35042 ft 449 kts 130°
2026-04-25 14:36 43.25911 20.22308 35049 ft 449 kts 130°
2026-04-25 14:36 43.21798 20.28739 35045 ft 449 kts 130°
2026-04-25 14:37 43.17671 20.35159 35041 ft 449 kts 130°
2026-04-25 14:37 43.13548 20.41579 35034 ft 449 kts 130°
2026-04-25 14:38 43.09424 20.47992 35050 ft 448 kts 129°
2026-04-25 14:38 43.05297 20.54382 35053 ft 448 kts 129°
2026-04-25 14:39 43.01173 20.60753 35053 ft 447 kts 129°
2026-04-25 14:39 42.96878 20.66909 35050 ft 448 kts 134°
2026-04-25 14:40 42.92334 20.72727 35046 ft 448 kts 136°
2026-04-25 14:40 42.87781 20.78465 35046 ft 448 kts 135°
2026-04-25 14:41 42.83223 20.84339 35048 ft 448 kts 134°
2026-04-25 14:41 42.78755 20.90184 35045 ft 448 kts 134°
2026-04-25 14:42 42.74988 20.95104 35039 ft 448 kts 134°
2026-04-25 14:42 42.69746 21.01901 35033 ft 448 kts 134°
2026-04-25 14:43 42.65228 21.07729 35030 ft 448 kts 134°
2026-04-25 14:43 42.60705 21.13557 35030 ft 448 kts 134°
2026-04-25 14:44 42.56170 21.19376 35039 ft 448 kts 134°
2026-04-25 14:44 42.51671 21.25153 35041 ft 448 kts 134°
2026-04-25 14:45 42.47136 21.30953 35043 ft 449 kts 134°
2026-04-25 14:45 42.42593 21.36752 35045 ft 449 kts 134°
2026-04-25 14:46 42.38048 21.42546 35037 ft 449 kts 134°
2026-04-25 14:46 42.33507 21.48318 35045 ft 448 kts 134°
2026-04-25 14:47 42.29698 21.53157 35044 ft 448 kts 134°
2026-04-25 14:47 42.24426 21.59843 35039 ft 448 kts 134°
2026-04-25 14:48 42.19913 21.65627 35037 ft 447 kts 133°
2026-04-25 14:48 42.15506 21.71528 35024 ft 446 kts 132°
2026-04-25 14:49 42.11110 21.77442 35021 ft 446 kts 132°
2026-04-25 14:49 42.06694 21.83320 35030 ft 446 kts 132°
2026-04-25 14:50 42.02270 21.89149 35030 ft 445 kts 132°
2026-04-25 14:50 41.97852 21.94960 35028 ft 444 kts 132°
2026-04-25 14:51 41.93435 22.00766 35026 ft 444 kts 132°
2026-04-25 14:51 41.89021 22.06552 35023 ft 443 kts 133°
2026-04-25 14:52 41.84600 22.12336 35008 ft 443 kts 133°
2026-04-25 14:52 41.80937 22.17124 35033 ft 443 kts 132°
2026-04-25 14:53 41.75804 22.23811 35017 ft 442 kts 132°
2026-04-25 14:53 41.71398 22.29557 35022 ft 442 kts 132°
2026-04-25 14:54 41.66992 22.35284 35028 ft 441 kts 133°
2026-04-25 14:54 41.62578 22.40998 35016 ft 441 kts 132°
2026-04-25 14:55 41.58179 22.46700 35024 ft 441 kts 132°
2026-04-25 14:55 41.53768 22.52394 35030 ft 440 kts 132°
2026-04-25 14:56 41.49371 22.58056 35034 ft 439 kts 132°
2026-04-25 14:56 41.44981 22.63702 35027 ft 438 kts 132°
2026-04-25 14:57 41.40600 22.69330 35017 ft 438 kts 132°
2026-04-25 14:57 41.36211 22.74954 35016 ft 438 kts 132°
2026-04-25 14:58 41.31955 22.80710 35025 ft 433 kts 125°
2026-04-25 14:58 41.28186 22.86902 35022 ft 433 kts 125°
2026-04-25 14:59 41.24387 22.93114 35018 ft 433 kts 125°
2026-04-25 14:59 41.20582 22.99304 35019 ft 432 kts 125°
2026-04-25 15:00 41.16774 23.05480 35012 ft 432 kts 125°
2026-04-25 15:00 41.12970 23.11645 35013 ft 431 kts 125°
2026-04-25 15:01 41.09171 23.17805 35009 ft 431 kts 125°
2026-04-25 15:01 41.05369 23.23952 35007 ft 431 kts 125°
2026-04-25 15:02 41.01557 23.30090 35007 ft 431 kts 126°
2026-04-25 15:02 40.97768 23.36180 35018 ft 431 kts 125°
2026-04-25 15:03 40.93962 23.42293 35017 ft 430 kts 125°
2026-04-25 15:03 40.90121 23.48434 35019 ft 429 kts 125°
2026-04-25 15:04 40.86319 23.54513 35019 ft 429 kts 125°
2026-04-25 15:04 40.82539 23.60542 35014 ft 429 kts 125°
2026-04-25 15:05 40.78710 23.66647 35010 ft 429 kts 125°
2026-04-25 15:06 40.72998 23.75724 35023 ft 429 kts 126°
2026-04-25 15:06 40.69180 23.81766 35029 ft 429 kts 126°
2026-04-25 15:07 40.65368 23.87796 35030 ft 428 kts 126°
2026-04-25 15:07 40.61581 23.93769 35032 ft 427 kts 126°
2026-04-25 15:08 40.57415 23.99393 35025 ft 432 kts 135°
2026-04-25 15:08 40.52898 24.04592 35021 ft 431 kts 134°
2026-04-25 15:09 40.48388 24.09790 35029 ft 431 kts 135°
2026-04-25 15:09 40.42377 24.16698 35027 ft 431 kts 135°
2026-04-25 15:10 40.37861 24.21883 35029 ft 431 kts 135°
2026-04-25 15:11 40.31087 24.29634 35027 ft 430 kts 135°
2026-04-25 15:11 40.26573 24.34792 35024 ft 430 kts 135°
2026-04-25 15:12 40.19803 24.42500 35018 ft 430 kts 135°
2026-04-25 15:12 40.16053 24.46772 35017 ft 430 kts 135°
2026-04-25 15:13 40.08511 24.55324 35009 ft 430 kts 135°
2026-04-25 15:14 40.03995 24.60440 35007 ft 430 kts 135°
2026-04-25 15:14 39.99481 24.65544 35010 ft 430 kts 135°
2026-04-25 15:15 39.94960 24.70643 35006 ft 430 kts 135°
2026-04-25 15:15 39.90430 24.75739 35008 ft 430 kts 135°
2026-04-25 15:16 39.85895 24.80821 35005 ft 430 kts 136°
2026-04-25 15:16 39.79092 24.88449 35005 ft 430 kts 136°
2026-04-25 15:17 39.72287 24.96060 35005 ft 430 kts 136°
2026-04-25 15:18 39.67742 25.01125 35014 ft 430 kts 136°
2026-04-25 15:18 39.60948 25.08678 35009 ft 431 kts 136°
2026-04-25 15:19 39.57583 25.13424 35016 ft 424 kts 122°
2026-04-25 15:19 39.53563 25.20633 35008 ft 425 kts 123°
2026-04-25 15:20 39.50080 25.26804 35003 ft 425 kts 123°
2026-04-25 15:20 39.46601 25.32984 35006 ft 424 kts 123°
2026-04-25 15:21 39.43121 25.39161 35008 ft 424 kts 123°
2026-04-25 15:21 39.39633 25.45325 35006 ft 424 kts 123°
2026-04-25 15:22 39.36148 25.51478 35005 ft 424 kts 123°
2026-04-25 15:22 39.32658 25.57628 34999 ft 424 kts 123°
2026-04-25 15:23 39.29163 25.63781 34998 ft 424 kts 123°
2026-04-25 15:23 39.25668 25.69921 35005 ft 424 kts 123°
2026-04-25 15:24 39.22180 25.76036 35017 ft 423 kts 123°
2026-04-25 15:24 39.19283 25.81104 35013 ft 422 kts 124°
2026-04-25 15:25 39.15211 25.88215 35013 ft 421 kts 124°
2026-04-25 15:25 39.11753 25.94248 35011 ft 421 kts 124°
2026-04-25 15:26 39.08273 26.00302 35006 ft 420 kts 124°
2026-04-25 15:26 39.04794 26.06334 34999 ft 420 kts 124°
2026-04-25 15:27 39.01305 26.12370 35000 ft 420 kts 124°
2026-04-25 15:28 38.96082 26.21398 34992 ft 419 kts 124°
2026-04-25 15:28 38.92598 26.27415 35000 ft 419 kts 124°
2026-04-25 15:29 38.89118 26.33413 34998 ft 419 kts 124°
2026-04-25 15:29 38.85639 26.39408 35002 ft 418 kts 122°
2026-04-25 15:30 38.83147 26.46038 34995 ft 411 kts 103°
2026-04-25 15:30 38.82149 26.53176 34988 ft 409 kts 97°
2026-04-25 15:31 38.81264 26.60395 34979 ft 410 kts 98°
2026-04-25 15:31 38.80362 26.67625 34966 ft 411 kts 98°
2026-04-25 15:32 38.79460 26.74884 34959 ft 412 kts 97°
2026-04-25 15:32 38.78548 26.82131 34963 ft 411 kts 98°
2026-04-25 15:33 38.77130 26.92978 34955 ft 412 kts 103°
2026-04-25 15:33 38.74859 26.99712 34951 ft 415 kts 122°
2026-04-25 15:34 38.71396 27.05643 34950 ft 416 kts 126°
2026-04-25 15:34 38.68493 27.10575 34955 ft 417 kts 126°
2026-04-25 15:35 38.62662 27.20500 34943 ft 419 kts 128°
2026-04-25 15:36 38.57411 27.29391 34941 ft 420 kts 128°
2026-04-25 15:36 38.53872 27.35350 34942 ft 421 kts 128°
2026-04-25 15:37 38.50322 27.41318 34939 ft 422 kts 128°
2026-04-25 15:37 38.46774 27.47288 34941 ft 422 kts 128°
2026-04-25 15:38 38.43218 27.53264 34943 ft 423 kts 128°
2026-04-25 15:38 38.39655 27.59230 34945 ft 423 kts 128°
2026-04-25 15:39 38.36090 27.65199 34944 ft 423 kts 128°
2026-04-25 15:39 38.32523 27.71155 34955 ft 422 kts 128°
2026-04-25 15:40 38.30156 27.75101 34963 ft 422 kts 128°
2026-04-25 15:40 38.25001 27.82506 34963 ft 420 kts 143°
2026-04-25 15:41 38.20227 27.86798 34963 ft 420 kts 145°
2026-04-25 15:41 38.15458 27.91070 34960 ft 419 kts 145°
2026-04-25 15:42 38.10688 27.95352 34951 ft 419 kts 145°
2026-04-25 15:42 38.05931 27.99617 34950 ft 419 kts 145°
2026-04-25 15:43 38.01156 28.03871 34958 ft 419 kts 145°
2026-04-25 15:43 37.96374 28.08133 34924 ft 421 kts 145°
2026-04-25 15:44 37.91570 28.12411 34925 ft 423 kts 145°
2026-04-25 15:44 37.86735 28.16705 34934 ft 425 kts 145°
2026-04-25 15:45 37.81918 28.20973 34943 ft 426 kts 145°
2026-04-25 15:45 37.78668 28.23849 34945 ft 426 kts 145°
2026-04-25 15:46 37.72189 28.29570 34946 ft 427 kts 145°
2026-04-25 15:46 37.67319 28.33866 34956 ft 427 kts 145°
2026-04-25 15:47 37.62454 28.38158 34947 ft 427 kts 145°
2026-04-25 15:47 37.57600 28.42442 34926 ft 421 kts 145°
2026-04-25 15:48 37.55237 28.44519 34356 ft 409 kts 145°
2026-04-25 15:48 37.52921 28.46550 33682 ft 400 kts 145°
2026-04-25 15:48 37.50658 28.48525 32899 ft 392 kts 146°
2026-04-25 15:48 37.48263 28.50115 32083 ft 388 kts 158°
2026-04-25 15:49 37.45682 28.51049 31253 ft 385 kts 164°
2026-04-25 15:49 37.43093 28.51850 30450 ft 381 kts 164°
2026-04-25 15:49 37.40533 28.52640 29614 ft 377 kts 163°
2026-04-25 15:49 37.37996 28.53426 28746 ft 372 kts 163°
2026-04-25 15:50 37.35504 28.54201 27903 ft 367 kts 163°
2026-04-25 15:50 37.33043 28.54965 27120 ft 362 kts 164°
2026-04-25 15:50 37.30613 28.55720 26361 ft 357 kts 164°
2026-04-25 15:50 37.28216 28.56466 25615 ft 352 kts 164°
2026-04-25 15:51 37.25853 28.57204 24903 ft 348 kts 165°
2026-04-25 15:51 37.25094 28.57440 24679 ft 346 kts 165°
2026-04-25 15:51 37.21243 28.58640 24026 ft 342 kts 165°
2026-04-25 15:51 37.18926 28.59361 23936 ft 342 kts 165°
2026-04-25 15:52 37.16612 28.60079 23949 ft 343 kts 165°
2026-04-25 15:52 37.14377 28.61077 23948 ft 340 kts 147°
2026-04-25 15:52 37.12744 28.63113 23949 ft 331 kts 120°
2026-04-25 15:52 37.12089 28.65849 23949 ft 333 kts 92°
2026-04-25 15:53 37.12349 28.68754 23955 ft 339 kts 83°
2026-04-25 15:53 37.12624 28.70723 23955 ft 340 kts 82°
2026-04-25 15:53 37.13056 28.73650 23956 ft 341 kts 82°
2026-04-25 15:53 37.13491 28.76572 23956 ft 341 kts 82°
2026-04-25 15:54 37.13923 28.79501 23956 ft 342 kts 82°
2026-04-25 15:54 37.14347 28.82431 23956 ft 341 kts 83°
2026-04-25 15:54 37.14765 28.85364 23955 ft 341 kts 83°
2026-04-25 15:54 37.15175 28.88291 23956 ft 342 kts 83°
2026-04-25 15:55 37.15576 28.91233 23966 ft 343 kts 85°
2026-04-25 15:55 37.15504 28.94161 23959 ft 335 kts 106°
2026-04-25 15:55 37.14687 28.96898 23948 ft 340 kts 115°
2026-04-25 15:55 37.14064 28.99729 23370 ft 345 kts 97°
2026-04-25 15:56 37.14171 29.02738 22477 ft 349 kts 79°
2026-04-25 15:56 37.15120 29.05531 21753 ft 351 kts 57°
2026-04-25 15:56 37.16835 29.07669 21107 ft 349 kts 34°
2026-04-25 15:56 37.19047 29.08850 20449 ft 348 kts 12°
2026-04-25 15:57 37.21445 29.08911 19784 ft 346 kts 349°
2026-04-25 15:57 37.23672 29.07841 19137 ft 343 kts 326°
2026-04-25 15:57 37.25385 29.05816 18511 ft 338 kts 303°
2026-04-25 15:57 37.26328 29.03165 17815 ft 331 kts 279°
2026-04-25 15:58 37.26365 29.00328 17113 ft 323 kts 255°
2026-04-25 15:58 37.25517 28.97790 16452 ft 314 kts 231°
2026-04-25 15:58 37.23974 28.95894 15785 ft 307 kts 211°
2026-04-25 15:58 37.22041 28.94892 15306 ft 296 kts 189°
2026-04-25 15:59 37.20024 28.94820 14823 ft 288 kts 173°
2026-04-25 15:59 37.18043 28.95118 14372 ft 281 kts 169°
2026-04-25 15:59 37.16243 28.95822 14179 ft 266 kts 155°
2026-04-25 15:59 37.14698 28.97022 13809 ft 261 kts 141°
2026-04-25 16:00 37.13353 28.98528 13317 ft 258 kts 139°
2026-04-25 16:00 37.12469 28.99526 12988 ft 257 kts 140°
2026-04-25 16:00 37.10697 29.01515 12341 ft 254 kts 140°
2026-04-25 16:00 37.09387 29.02984 11883 ft 252 kts 140°
2026-04-25 16:01 37.08075 29.04433 11377 ft 249 kts 145°
2026-04-25 16:01 37.06540 29.05344 10875 ft 243 kts 171°
2026-04-25 16:01 37.04874 29.05314 10434 ft 241 kts 195°
2026-04-25 16:01 37.03366 29.04440 9954 ft 240 kts 209°
2026-04-25 16:02 37.01963 29.03401 9635 ft 230 kts 209°
2026-04-25 16:02 37.00579 29.02379 9103 ft 231 kts 209°
2026-04-25 16:02 36.99209 29.01371 8590 ft 232 kts 209°
2026-04-25 16:02 36.97815 29.00347 8071 ft 232 kts 209°
2026-04-25 16:03 36.96398 28.99306 7565 ft 234 kts 209°
2026-04-25 16:03 36.95011 28.98288 7071 ft 235 kts 209°
2026-04-25 16:03 36.93640 28.97177 6584 ft 236 kts 218°
2026-04-25 16:03 36.92397 28.95848 6094 ft 235 kts 219°
2026-04-25 16:04 36.91146 28.94520 5589 ft 237 kts 218°
2026-04-25 16:04 36.89888 28.93186 5085 ft 237 kts 219°
2026-04-25 16:04 36.88617 28.91840 4566 ft 237 kts 220°
2026-04-25 16:04 36.87364 28.90515 4030 ft 240 kts 220°
2026-04-25 16:05 36.86080 28.89159 3513 ft 243 kts 220°
2026-04-25 16:05 36.84715 28.88033 3396 ft 226 kts 211°
2026-04-25 16:05 36.82095 28.86113 2789 ft 211 kts 210°
2026-04-25 16:06 36.80870 28.85226 2421 ft 195 kts 210°
2026-04-25 16:06 36.79741 28.84408 2046 ft 180 kts 209°
2026-04-25 16:06 36.78676 28.83635 1538 ft 174 kts 210°
2026-04-25 16:06 36.77714 28.82845 1383 ft 162 kts 217°
2026-04-25 16:07 36.76837 28.82015 1167 ft 156 kts 220°
2026-04-25 16:07 36.76275 28.81428 931 ft 156 kts 220°
2026-04-25 16:07 36.75099 28.80459 532 ft 151 kts 197°
2026-04-25 16:07 36.74106 28.80206 371 ft 143 kts 193°
2026-04-25 16:08 36.73163 28.79885 183 ft 139 kts 195°
2026-04-25 16:08 36.72235 28.79562 21 ft 134 kts 195°
2026-04-25 16:08 36.71430 28.79293 12 ft 98 kts 196°
2026-04-25 16:08 36.70936 28.79124 13 ft 48 kts 195°
2026-04-25 16:09 36.70719 28.79028 13 ft 23 kts 215°
2026-04-25 16:09 36.70593 28.78897 14 ft 21 kts 225°
2026-04-25 16:09 36.70588 28.78797 13 ft 11 kts 324°
2026-04-25 16:09 36.70658 28.78810 13 ft 10 kts 17°
2026-04-25 16:10 36.70721 28.78835 15 ft 9 kts 19°
2026-04-25 16:10 36.70780 28.78855 13 ft 8 kts 14°
2026-04-25 16:10 36.70842 28.78875 13 ft 14 kts 14°
2026-04-25 16:10 36.70979 28.78925 13 ft 23 kts 14°
2026-04-25 16:11 36.71137 28.78977 13 ft 24 kts 15°
2026-04-25 16:11 36.71306 28.79036 13 ft 26 kts 16°
2026-04-25 16:11 36.71490 28.79099 13 ft 28 kts 15°
2026-04-25 16:11 36.71687 28.79166 12 ft 30 kts 15°
2026-04-25 16:12 36.71821 28.79209 12 ft 9 kts 12°
2026-04-25 16:12 36.71868 28.79182 12 ft 7 kts 304°
2026-04-25 16:12 36.71882 28.79125 12 ft 7 kts 283°
2026-04-25 16:12 36.71889 28.79088 12 ft 6 kts 284°
2026-04-25 16:13 36.71916 28.79033 12 ft 5 kts 342°
2026-04-25 16:13 36.71952 28.79034 12 ft 5 kts 12°
2026-04-25 16:13 36.71992 28.79047 12 ft 8 kts 15°
2026-04-25 16:13 36.72046 28.79066 12 ft 8 kts 15°
2026-04-25 16:14 36.72100 28.79084 12 ft 8 kts 15°
2026-04-25 16:14 36.72151 28.79101 12 ft 7 kts
2026-04-25 16:14 36.72179 28.79060 12 ft 6 kts 284°
2026-04-25 16:14 36.72185 28.79034 12 ft 0 kts 285°